Zurück zum Katalog

STARLINK-36920

AktivKommunikationVLEO
NORAD 67947·PAYLOAD·🇺🇸 United States

Gestartet Feb 24, 2026 von Vandenberg Space Force Base

Loading…

Nächste Überflüge (nächste 24 Stunden)

TLE

AktuellSource: CelesTrak SupGP

Epoche: Sep 14, 2026, 15:55 UTC

1 67947C 26037R   26257.66368056  .00014373  00000+0  52078-3 0  2572
2 67947  43.0028 203.1438 0001522 263.8782 178.5005 15.27559016    17

Verfolge STARLINK-36920 in Echtzeit mit AllMySat

Download on the App Store